FW8537 Weather Reports


time (UTC)temp
C
wind
direction
speed
KPH
gust
KPH
rain 1hr
cm
rain 24hr
cm
rain mn
cm
humidity
%
barometer
mb
20260506153202 28 85 8.0 16.1 0.00 0.00 0.00 69 1014.1
20260506153005 27 141 4.8 14.5 0.00 0.00 0.00 72 1014.0
20260506152945 28 129 8.0 14.5 0.00 0.00 0.00 69 1014.1
20260506152202 28 103 9.7 16.1 0.00 0.00 0.00 71 1014.1
20260506151704 27 125 8.0 17.7 0.00 0.00 0.00 71 1014.1
20260506151505 27 123 9.7 17.7 0.00 0.00 0.00 68 1014.0
20260506151203 27 118 6.4 17.7 0.00 0.00 0.00 75 1014.1
20260506150704 27 128 9.7 16.1 0.00 0.00 0.00 76 1014.1
20260506150203 27 69 9.7 16.1 0.00 0.00 0.00 75 1014.1
20260506150005 27 113 8.0 16.1 0.00 0.00 0.00 77 1014.0
20260506145702 27 96 9.7 16.1 0.00 0.00 0.00 76 1014.1
20260506145204 27 83 8.0 16.1 0.00 0.00 0.00 75 1014.1
20260506144704 27 97 8.0 16.1 0.00 0.00 0.00 77 1014.1
20260506144504 27 89 9.7 16.1 0.00 0.00 0.00 76 1013.9
20260506144202 27 111 8.0 16.1 0.00 0.00 0.00 77 1014.0
20260506143947 27 122 8.0 16.1 0.00 0.00 0.00 78 1014.0
20260506143202 27 155 8.0 17.7 0.00 0.00 0.00 79 1014.0
20260506143003 26 76 8.0 17.7 0.00 0.00 0.00 77 1014.0
20260506142703 26 107 9.7 17.7 0.00 0.00 0.00 78 1014.1
20260506142203 26 109 8.0 14.5 0.00 0.00 0.00 81 1014.1
20260506142040 26 90 4.8 11.3 0.00 0.00 0.00 82 1013.9
20260506142035 26 127 4.8 12.9 0.00 0.00 0.00 80 1014.1
20260506140702 26 121 6.4 12.9 0.00 0.00 0.00 83 1013.9
20260506140202 26 109 8.0 14.5 0.00 0.00 0.00 83 1013.9
20260506140005 26 146 6.4 16.1 0.00 0.00 0.00 83 1013.9
20260506135702 26 128 8.0 16.1 0.00 0.00 0.00 83 1014.0
20260506135202 26 80 8.0 16.1 0.00 0.00 0.00 84 1014.0
20260506134702 26 99 8.0 12.9 0.00 0.00 0.00 85 1014.0
20260506134519 25 103 6.4 17.7 0.00 0.00 0.00 85 1013.5
20260506134447 26 86 9.7 17.7 0.00 0.00 0.00 85 1013.6
20260506133703 25 116 11.3 17.7 0.00 0.00 0.00 85 1013.6
20260506133203 25 105 9.7 14.5 0.00 0.00 0.00 85 1013.6
20260506133004 25 121 9.7 14.5 0.00 0.00 0.00 85 1013.5
20260506132702 25 141 9.7 16.1 0.00 0.00 0.00 86 1013.6
20260506132201 25 98 11.3 16.1 0.00 0.00 0.00 86 1013.6
20260506131703 25 119 9.7 16.1 0.00 0.00 0.00 86 1013.6
20260506131610 25 113 9.7 16.1 0.00 0.00 0.00 86 1013.5
20260506131202 25 130 8.0 12.9 0.00 0.00 0.00 87 1013.6
20260506130701 25 105 8.0 12.9 0.00 0.00 0.00 88 1013.6
20260506130202 25 107 6.4 12.9 0.00 0.00 0.00 89 1013.6
20260506130033 25 138 6.4 12.9 0.00 0.00 0.00 89 1013.4
20260506125701 25 89 4.8 12.9 0.00 0.00 0.00 89 1013.5
20260506125202 24 128 3.2 8.0 0.00 0.00 0.00 90 1013.5
20260506124701 24 109 3.2 4.8 0.00 0.00 0.00 91 1013.5
20260506124533 23 79 1.6 4.8 0.00 0.00 0.00 91 1013.4
20260506124202 23 97 3.2 4.8 0.00 0.00 0.00 91 1013.5
20260506123701 23 105 3.2 4.8 0.00 0.00 0.00 92 1013.5
20260506123203 23 90 1.6 4.8 0.00 0.00 0.00 93 1013.5
20260506123003 23 90 1.6 4.8 0.00 0.00 0.00 93 1013.2
20260506122953 23 103 0.0 3.2 0.00 0.00 0.00 94 1013.3
20260506122204 22 100 0.0 0.0 0.00 0.00 0.00 94 1013.3
20260506121703 22 100 0.0 0.0 0.00 0.00 0.00 94 1013.3
20260506121508 22 100 0.0 0.0 0.00 0.00 0.00 94 1013.0
20260506121204 22 100 0.0 0.0 0.00 0.00 0.00 94 1013.2
20260506120701 22 100 0.0 0.0 0.00 0.00 0.00 94 1013.2
20260506120202 21 100 0.0 0.0 0.00 0.00 0.00 94 1013.2
20260506120032 21 100 0.0 0.0 0.00 0.00 0.00 94 1013.0
20260506115702 21 100 0.0 0.0 0.00 0.00 0.00 94 1013.1
20260506115203 21 100 0.0 0.0 0.00 0.00 0.00 94 1013.1
20260506114702 21 100 0.0 0.0 0.00 0.00 0.00 94 1013.1
20260506114540 20 100 0.0 0.0 0.00 0.00 0.00 94 1013.0
20260506114201 20 100 0.0 0.0 0.00 0.00 0.00 94 1013.2
20260506113702 20 100 0.0 0.0 0.00 0.00 0.00 94 1013.2
20260506113202 20 100 0.0 0.0 0.00 0.00 0.00 94 1013.2
20260506113006 20 100 0.0 0.0 0.00 0.00 0.00 94 1013.0
20260506112954 20 100 0.0 0.0 0.00 0.00 0.00 94 1013.1
20260506112201 20 100 0.0 0.0 0.00 0.00 0.00 94 1013.1
20260506111957 20 100 0.0 0.0 0.00 0.00 0.00 94 1013.1
20260506111557 19 100 0.0 0.0 0.00 0.00 0.00 94 1013.0
20260506111200 20 100 0.0 0.0 0.00 0.00 0.00 94 1013.1
20260506110702 19 100 0.0 0.0 0.00 0.00 0.00 94 1013.1
20260506110201 19 100 0.0 0.0 0.00 0.00 0.00 94 1013.1
20260506110032 19 100 0.0 0.0 0.00 0.00 0.00 94 1012.5
20260506105701 19 100 0.0 0.0 0.00 0.00 0.00 94 1012.6
20260506105202 19 100 0.0 0.0 0.00 0.00 0.00 94 1012.6
20260506104704 19 100 0.0 0.0 0.00 0.00 0.00 94 1012.6
20260506104521 19 100 0.0 0.0 0.00 0.00 0.00 94 1012.3
20260506104202 19 100 0.0 0.0 0.00 0.00 0.00 94 1012.5
20260506103702 19 100 0.0 0.0 0.00 0.00 0.00 94 1012.5
20260506103204 19 100 0.0 0.0 0.00 0.00 0.00 94 1012.5
20260506103018 19 100 0.0 0.0 0.00 0.00 0.00 93 1012.4
20260506102704 19 100 0.0 0.0 0.00 0.00 0.00 93 1012.5
20260506102202 19 100 0.0 0.0 0.00 0.00 0.00 93 1012.5
20260506101702 20 100 0.0 0.0 0.00 0.00 0.00 93 1012.5
20260506101544 19 100 0.0 0.0 0.00 0.00 0.00 93 1012.4
20260506101202 20 100 0.0 0.0 0.00 0.00 0.00 93 1012.3
20260506100702 20 100 0.0 0.0 0.00 0.00 0.00 93 1012.3
20260506100200 20 100 0.0 0.0 0.00 0.00 0.00 93 1012.3
20260506100035 19 100 0.0 0.0 0.00 0.00 0.00 93 1012.1
20260506095700 20 100 0.0 0.0 0.00 0.00 0.00 93 1012.2
20260506095157 20 100 0.0 0.0 0.00 0.00 0.00 93 1012.2
20260506094656 20 100 0.0 0.0 0.00 0.00 0.00 93 1012.2
20260506094522 19 100 0.0 0.0 0.00 0.00 0.00 93 1012.1
20260506094157 20 100 0.0 0.0 0.00 0.00 0.00 93 1012.2
20260506093705 20 100 0.0 0.0 0.00 0.00 0.00 93 1012.2
20260506093445 20 100 0.0 0.0 0.00 0.00 0.00 93 1012.2
20260506093001 19 100 0.0 0.0 0.00 0.00 0.00 93 1011.9
20260506092650 20 100 0.0 0.0 0.00 0.00 0.00 93 1012.0
20260506092154 20 100 0.0 0.0 0.00 0.00 0.00 93 1012.0
20260506091656 20 100 0.0 0.0 0.00 0.00 0.00 93 1012.0
20260506091545 20 100 0.0 0.0 0.00 0.00 0.00 93 1011.9
20260506091153 20 100 0.0 0.0 0.00 0.00 0.00 93 1012.0
20260506090740 20 100 0.0 0.0 0.00 0.00 0.00 93 1012.0
20260506090724 20 100 0.0 0.0 0.00 0.00 0.00 93 1012.0
20260506090032 20 100 0.0 0.0 0.00 0.00 0.00 93 1011.9
20260506085648 20 100 0.0 0.0 0.00 0.00 0.00 93 1012.0
20260506085136 20 100 0.0 0.0 0.00 0.00 0.00 93 1012.0
20260506084633 20 100 0.0 0.0 0.00 0.00 0.00 93 1012.0
20260506084524 20 100 0.0 0.0 0.00 0.00 0.00 93 1011.9
20260506084137 20 100 0.0 0.0 0.00 0.00 0.00 93 1012.0
20260506083636 20 100 0.0 0.0 0.00 0.00 0.00 93 1012.0
20260506083132 20 100 0.0 0.0 0.00 0.00 0.00 93 1012.0
20260506083006 20 100 0.0 0.0 0.00 0.00 0.00 93 1012.0
20260506082917 20 100 0.0 0.0 0.00 0.00 0.00 93 1012.1
20260506082130 20 100 0.0 0.0 0.00 0.00 0.00 93 1012.1
20260506081630 20 100 0.0 0.0 0.00 0.00 0.00 92 1012.1
20260506081501 20 100 0.0 0.0 0.00 0.00 0.00 92 1012.0
20260506081130 20 100 0.0 0.0 0.00 0.00 0.00 92 1012.1
20260506080919 20 100 0.0 0.0 0.00 0.00 0.00 92 1012.1
20260506080130 20 100 0.0 0.0 0.00 0.00 0.00 92 1012.1
20260506073133 21 100 0.0 0.0 0.00 0.00 0.00 92 1012.3
20260506073035 20 100 0.0 0.0 0.00 0.00 0.00 92 1012.3
20260506072632 21 100 0.0 0.0 0.00 0.00 0.00 92 1012.4
20260506072415 21 100 0.0 0.0 0.00 0.00 0.00 92 1012.4
20260506071630 21 100 0.0 0.0 0.00 0.00 0.00 91 1012.4
20260506071519 20 100 0.0 0.0 0.00 0.00 0.00 91 1012.2
20260506071130 21 100 0.0 0.0 0.00 0.00 0.00 91 1012.3
20260506070631 21 100 0.0 0.0 0.00 0.00 0.00 91 1012.3
20260506070130 21 100 0.0 0.0 0.00 0.00 0.00 91 1012.3
20260506062131 21 100 0.0 0.0 0.00 0.00 0.00 90 1012.5
20260506061631 21 100 0.0 0.0 0.00 0.00 0.00 90 1012.5
20260506061538 21 100 0.0 0.0 0.00 0.00 0.00 90 1012.4
20260506061131 21 100 0.0 0.0 0.00 0.00 0.00 90 1012.6
20260506060630 21 100 0.0 0.0 0.00 0.00 0.00 90 1012.6
20260506060131 21 100 0.0 0.0 0.00 0.00 0.00 89 1012.6
20260506051131 22 100 0.0 1.6 0.00 0.00 0.00 87 1012.9
20260506050632 23 100 0.0 1.6 0.00 0.00 0.00 87 1012.9
20260506050131 23 98 0.0 3.2 0.00 0.00 0.00 87 1012.9
20260506044628 22 107 0.0 0.0 0.00 0.00 0.00 87 1012.9
20260506044539 22 107 0.0 0.0 0.00 0.00 0.00 87 1012.7
20260506044130 23 107 0.0 0.0 0.00 0.00 0.00 87 1012.9
20260506043631 23 107 0.0 0.0 0.00 0.00 0.00 86 1012.9
20260506043129 23 107 0.0 0.0 0.00 0.00 0.00 86 1012.9
20260506043031 22 107 0.0 0.0 0.00 0.00 0.00 86 1012.9
20260506042632 23 107 0.0 0.0 0.00 0.00 0.00 86 1013.1
20260506042130 23 107 0.0 1.6 0.00 0.00 0.00 85 1013.1
20260506041630 23 101 0.0 1.6 0.00 0.00 0.00 85 1013.1
20260506041507 23 101 0.0 1.6 0.00 0.00 0.00 85 1013.0
20260506041130 23 101 0.0 1.6 0.00 0.00 0.00 85 1013.1
20260506040925 23 101 0.0 3.2 0.00 0.00 0.00 85 1013.1
20260506040130 23 101 1.6 3.2 0.00 0.00 0.00 85 1013.1
20260506040002 23 101 1.6 3.2 0.00 0.00 0.00 84 1013.0
20260506035930 23 107 1.6 4.8 0.00 0.00 0.00 84 1013.2
20260506035126 23 88 3.2 4.8 0.00 0.00 0.00 84 1013.2
20260506034619 23 101 1.6 4.8 0.00 0.00 0.00 84 1013.2
20260506034532 23 97 1.6 4.8 0.00 0.00 0.00 84 1013.2
20260506034408 23 98 1.6 4.8 0.00 0.00 0.00 84 1013.4
20260506033611 23 112 3.2 6.4 0.00 0.00 0.00 84 1013.4
20260506033110 23 84 3.2 6.4 0.00 0.00 0.00 83 1013.4
20260506033018 23 84 1.6 6.4 0.00 0.00 0.00 83 1013.1
20260506032609 23 92 3.2 4.8 0.00 0.00 0.00 83 1013.3
20260506032107 23 92 3.2 4.8 0.00 0.00 0.00 83 1013.3
20260506031606 23 97 3.2 4.8 0.00 0.00 0.00 82 1013.3
20260506031506 23 99 3.2 4.8 0.00 0.00 0.00 82 1013.1
20260506031355 23 80 3.2 8.0 0.00 0.00 0.00 82 1013.2
20260506030853 23 91 3.2 8.0 0.00 0.00 0.00 82 1013.2
20260506030357 23 96 3.2 8.0 0.00 0.00 0.00 82 1013.2
20260506030048 23 92 1.6 4.8 0.00 0.00 0.00 82 1013.1
20260506025603 23 110 3.2 8.0 0.00 0.00 0.00 82 1013.1
20260506025102 23 88 3.2 8.0 0.00 0.00 0.00 82 1013.1
20260506024604 23 85 3.2 8.0 0.00 0.00 0.00 81 1013.1
20260506024539 23 96 3.2 6.4 0.00 0.00 0.00 81 1012.8
20260506024102 23 92 4.8 9.7 0.00 0.00 0.00 81 1012.9
20260506023602 23 79 4.8 9.7 0.00 0.00 0.00 81 1012.9
20260506023101 23 98 3.2 8.0 0.00 0.00 0.00 81 1012.9
20260506023032 23 120 3.2 6.4 0.00 0.00 0.00 81 1012.8
20260506022740 23 82 3.2 9.7 0.00 0.00 0.00 81 1013.0
20260506022734 23 80 3.2 6.4 0.00 0.00 0.00 80 1013.0
20260506022704 23 97 3.2 9.7 0.00 0.00 0.00 81 1013.0
20260506021509 23 85 1.6 6.4 0.00 0.00 0.00 80 1012.6
20260506021104 23 84 3.2 6.4 0.00 0.00 0.00 80 1012.8
20260506020605 23 100 3.2 8.0 0.00 0.00 0.00 80 1012.8
20260506020106 23 92 3.2 9.7 0.00 0.00 0.00 80 1012.8
20260506020001 23 89 3.2 8.0 0.00 0.00 0.00 80 1012.5
20260506015601 23 88 3.2 9.7 0.00 0.00 0.00 79 1012.6
20260506015100 23 109 3.2 4.8 0.00 0.00 0.00 79 1012.6
20260506014952 23 84 3.2 4.8 0.00 0.00 0.00 79 1012.5
20260506014639 23 92 3.2 4.8 0.00 0.00 0.00 79 1012.6
20260506014617 23 84 1.6 4.8 0.00 0.00 0.00 79 1012.4
20260506013653 23 98 4.8 8.0 0.00 0.00 0.00 78 1012.5
20260506013633 23 86 3.2 8.0 0.00 0.00 0.00 79 1012.5
20260506013009 23 84 3.2 8.0 0.00 0.00 0.00 78 1012.2
20260506012601 23 77 3.2 8.0 0.00 0.00 0.00 78 1012.3
20260506012102 24 107 3.2 9.7 0.00 0.00 0.00 78 1012.3
20260506011603 24 87 3.2 9.7 0.00 0.00 0.00 77 1012.3
20260506011503 23 93 4.8 8.0 0.00 0.00 0.00 77 1012.0
20260506011104 24 117 3.2 9.7 0.00 0.00 0.00 77 1012.1
20260506010856 24 126 3.2 9.7 0.00 0.00 0.00 77 1012.1
20260506010005 23 88 3.2 6.4 0.00 0.00 0.00 77 1011.9
20260506005603 24 111 4.8 8.0 0.00 0.00 0.00 78 1012.0
20260506005104 24 108 4.8 8.0 0.00 0.00 0.00 77 1012.0
20260506004603 24 92 3.2 9.7 0.00 0.00 0.00 77 1012.0
20260506004505 23 125 1.6 9.7 0.00 0.00 0.00 77 1011.8
20260506004104 24 76 3.2 11.3 0.00 0.00 0.00 77 1011.9
20260506003654 24 82 3.2 9.7 0.00 0.00 0.00 78 1011.9
20260506003637 24 106 3.2 11.3 0.00 0.00 0.00 77 1011.9
20260506003052 24 82 1.6 9.7 0.00 0.00 0.00 78 1011.7
20260506002601 24 81 4.8 12.9 0.00 0.00 0.00 77 1011.8
20260506002105 24 104 6.4 12.9 0.00 0.00 0.00 77 1011.8
20260506001602 24 90 4.8 12.9 0.00 0.00 0.00 76 1011.8
20260506001532 24 101 4.8 12.9 0.00 0.00 0.00 76 1011.6
20260506001354 24 80 4.8 11.3 0.00 0.00 0.00 75 1011.7
20260506000600 24 76 4.8 11.3 0.00 0.00 0.00 75 1011.7
20260506000059 24 36 4.8 12.9 0.00 0.00 0.00 75 1011.7
20260506000035 24 61 3.2 12.9 0.00 0.00 0.00 75 1011.5
20260505235845 25 86 4.8 12.9 0.00 0.00 0.00 76 1011.6
20260505235056 25 114 4.8 12.9 0.00 0.00 0.00 76 1011.6
20260505234554 25 98 4.8 12.9 0.00 0.00 0.00 76 1011.6
20260505234504 24 69 6.4 12.9 0.00 0.00 0.00 76 1011.5
20260505234432 25 72 9.7 20.9 0.00 0.00 0.00 76 1011.6
20260505234124 25 78 6.4 17.7 0.00 0.00 0.00 76 1011.6
20260505233054 25 107 6.4 20.9 0.00 0.00 0.00 77 1011.6
20260505233035 25 96 8.0 16.1 0.00 0.00 0.00 77 1011.9
20260505232843 25 98 4.8 11.3 0.00 0.00 0.00 77 1012.0
20260505232053 25 83 4.8 16.1 0.00 0.00 0.00 76 1012.0
20260505231553 25 55 6.4 22.5 0.00 0.00 0.00 76 1012.0
20260505231538 25 75 4.8 19.3 0.00 0.00 0.00 76 1011.9
20260505231052 25 101 6.4 22.5 0.00 0.00 0.00 76 1012.0
20260505230551 25 34 4.8 17.7 0.00 0.00 0.00 76 1012.0
20260505230051 25 73 8.0 17.7 0.00 0.00 0.00 76 1012.0
20260505230035 25 72 3.2 17.7 0.00 0.00 0.00 76 1012.0
20260505225552 25 76 8.0 17.7 0.00 0.00 0.00 77 1012.1
20260505225053 25 102 6.4 14.5 0.00 0.00 0.00 73 1012.1
20260505224636 26 36 8.0 22.5 0.00 0.00 0.00 72 1012.0
20260505224625 25 53 4.8 16.1 0.00 0.00 0.00 72 1012.1
20260505224552 25 72 3.2 14.5 0.00 0.00 0.00 73 1011.9
20260505223552 26 40 11.3 22.5 0.00 0.00 0.00 73 1012.0
20260505223052 25 61 9.7 19.3 0.00 0.00 0.00 76 1011.9
20260505223047 26 84 8.0 20.9 0.00 0.00 0.00 76 1012.0
20260505222540 26 91 6.4 17.7 0.00 0.00 0.00 73 1012.0
20260505222322 26 67 8.0 17.7 0.00 0.00 0.00 76 1012.0
20260505221537 26 77 8.0 17.7 0.00 0.00 0.00 75 1011.9
20260505221532 26 49 6.4 17.7 0.00 0.00 0.00 75 1012.0
20260505221032 26 61 4.8 16.1 0.00 0.00 0.00 74 1012.0
20260505220543 26 43 4.8 12.9 0.00 0.00 0.00 74 1012.0
20260505220030 26 61 6.4 17.7 0.00 0.00 0.00 74 1011.7
20260505220015 26 76 3.2 17.7 0.00 0.00 0.00 74 1011.6
20260505215528 26 84 8.0 17.7 0.00 0.00 0.00 73 1011.7
20260505215029 26 61 6.4 16.1 0.00 0.00 0.00 72 1011.7
20260505214823 26 62 6.4 14.5 0.00 0.00 0.00 74 1011.6
20260505214504 26 98 3.2 12.9 0.00 0.00 0.00 74 1011.5
20260505214318 26 15 6.4 20.9 0.00 0.00 0.00 73 1011.6
20260505213529 26 48 8.0 20.9 0.00 0.00 0.00 74 1011.6
20260505213028 26 57 8.0 17.7 0.00 0.00 0.00 73 1011.8
20260505213002 26 65 8.0 17.7 0.00 0.00 0.00 73 1011.7
20260505212529 26 92 11.3 25.7 0.00 0.00 0.00 73 1011.8
20260505212031 26 53 12.9 25.7 0.00 0.00 0.00 73 1011.8
20260505211530 26 99 8.0 17.7 0.00 0.00 0.00 72 1011.7
20260505211505 26 101 11.3 17.7 0.00 0.00 0.00 72 1011.6
20260505211029 26 90 6.4 16.1 0.00 0.00 0.00 73 1011.7
20260505210528 26 105 8.0 17.7 0.00 0.00 0.00 73 1011.7
20260505210031 26 94 8.0 20.9 0.00 0.00 0.00 73 1011.6
20260505210006 26 84 11.3 17.7 0.00 0.00 0.00 72 1011.4
20260505205821 26 36 6.4 20.9 0.00 0.00 0.00 73 1011.6
20260505205029 26 59 9.7 27.4 0.00 0.00 0.00 74 1011.6
20260505204529 26 67 9.7 27.4 0.00 0.00 0.00 74 1011.9
20260505204504 26 51 9.7 27.4 0.00 0.00 0.00 74 1011.8
20260505204029 26 69 11.3 27.4 0.00 0.00 0.00 74 1011.9
20260505203922 27 82 8.0 20.9 0.00 0.00 0.00 74 1011.9
20260505203609 26 109 11.3 27.4 0.00 0.00 0.00 71 1011.9
20260505203007 26 89 9.7 19.3 0.00 0.00 0.00 73 1011.8
20260505202530 27 63 8.0 19.3 0.00 0.00 0.00 72 1011.9
20260505202032 26 99 9.7 17.7 0.00 0.00 0.00 74 1011.9
20260505201531 26 66 8.0 24.1 0.00 0.00 0.00 73 1011.9
20260505201505 26 57 8.0 22.5 0.00 0.00 0.00 73 1011.8
20260505201029 27 84 8.0 24.1 0.00 0.00 0.00 73 1011.9
20260505200820 26 90 8.0 24.1 0.00 0.00 0.00 74 1011.9
20260505200029 27 67 6.4 24.1 0.00 0.00 0.00 73 1012.1
20260505200005 26 49 6.4 22.5 0.00 0.00 0.00 73 1012.0
20260505195530 27 114 6.4 16.1 0.00 0.00 0.00 73 1012.1
20260505195109 26 316 9.7 20.9 0.00 0.00 0.00 74 1012.5
20260505195052 26 20 8.0 16.1 0.00 0.00 0.00 73 1012.1
20260505194514 27 107 9.7 22.5 0.00 0.00 0.00 73 1012.9
20260505194509 26 88 11.3 25.7 0.00 0.00 0.00 73 1012.9
20260505194505 26 90 4.8 20.9 0.00 0.00 0.00 73 1012.4
20260505194457 26 86 12.9 25.7 0.00 0.00 0.00 73 1012.6
20260505194452 26 35 9.7 27.4 0.00 0.00 0.00 73 1012.5
20260505194448 27 71 6.4 17.7 0.00 0.00 0.00 73 1012.5
20260505194442 27 61 6.4 16.1 0.00 0.00 0.00 72 1012.5
20260505194437 26 89 8.0 24.1 0.00 0.00 0.00 74 1012.5
20260505194433 26 62 9.7 24.1 0.00 0.00 0.00 72 1012.5
20260505194133 26 84 11.3 25.7 0.00 0.00 0.00 74 1012.6
20260505194128 26 71 9.7 27.4 0.00 0.00 0.00 73 1012.6
20260505184530 26 90 8.0 25.7 0.00 0.00 0.00 72 1013.0
20260505184507 26 86 11.3 20.9 0.00 0.00 0.00 73 1012.8
20260505184028 26 25 8.0 29.0 0.00 0.00 0.00 70 1013.0
20260505183530 26 94 12.9 29.0 0.00 0.00 0.00 74 1013.0
20260505183028 26 68 12.9 27.4 0.00 0.00 0.00 73 1013.0
20260505183002 26 116 11.3 27.4 0.00 0.00 0.00 73 1012.9
20260505182529 26 78 11.3 27.4 0.00 0.00 0.00 73 1013.0
20260505182413 26 81 9.7 25.7 0.00 0.00 0.00 73 1013.0
20260505182408 26 77 12.9 27.4 0.00 0.00 0.00 74 1013.0
20260505181503 26 79 16.1 25.7 0.00 0.00 0.00 73 1012.9
20260505181029 26 105 9.7 25.7 0.00 0.00 0.00 73 1013.0
20260505180530 26 101 11.3 25.7 0.00 0.00 0.00 75 1013.0
20260505180028 26 127 12.9 27.4 0.00 0.00 0.00 71 1013.1
20260505180003 26 74 9.7 25.7 0.00 0.00 0.00 73 1012.9
20260505175529 26 123 12.9 27.4 0.00 0.00 0.00 71 1013.1
20260505175029 26 98 11.3 24.1 0.00 0.00 0.00 71 1013.1
20260505174529 26 61 12.9 24.1 0.00 0.00 0.00 72 1013.1
20260505174503 26 90 9.7 22.5 0.00 0.00 0.00 72 1013.0
20260505174029 26 140 11.3 22.5 0.00 0.00 0.00 73 1013.1
20260505173530 26 98 9.7 24.1 0.00 0.00 0.00 73 1013.1
20260505173327 26 58 11.3 25.7 0.00 0.00 0.00 74 1013.1
20260505173004 26 57 6.4 25.7 0.00 0.00 0.00 74 1013.0
20260505172530 26 98 11.3 25.7 0.00 0.00 0.00 75 1013.1
20260505172031 26 84 8.0 24.1 0.00 0.00 0.00 73 1013.1
20260505171528 26 67 8.0 20.9 0.00 0.00 0.00 72 1013.1
20260505171503 26 67 9.7 19.3 0.00 0.00 0.00 72 1013.0
20260505171028 26 77 8.0 20.9 0.00 0.00 0.00 74 1013.1
20260505170529 26 59 9.7 22.5 0.00 0.00 0.00 73 1013.1
20260505170028 26 64 9.7 22.5 0.00 0.00 0.00 74 1013.1
20260505170003 26 71 9.7 22.5 0.00 0.00 0.00 73 1012.9
20260505165824 26 54 11.3 35.4 0.00 0.00 0.00 73 1013.1
20260505165029 26 87 12.9 35.4 0.00 0.00 0.00 71 1013.1
20260505164530 26 90 9.7 32.2 0.00 0.00 0.00 72 1013.4
20260505164503 26 127 14.5 27.4 0.00 0.00 0.00 72 1013.2
20260505164029 26 87 8.0 24.1 0.00 0.00 0.00 73 1013.4
20260505163530 26 62 11.3 27.4 0.00 0.00 0.00 72 1013.4
20260505163054 26 108 9.7 25.7 0.00 0.00 0.00 73 1013.2
20260505163030 26 81 12.9 27.4 0.00 0.00 0.00 73 1013.2
20260505162824 26 75 11.3 30.6 0.00 0.00 0.00 72 1013.2
20260505162319 26 74 11.3 30.6 0.00 0.00 0.00 71 1013.2
20260505161538 26 92 8.0 22.5 0.00 0.00 0.00 73 1013.1
20260505161528 26 86 14.5 30.6 0.00 0.00 0.00 73 1013.2
20260505161030 26 88 12.9 30.6 0.00 0.00 0.00 74 1013.2
20260505160529 26 103 11.3 33.8 0.00 0.00 0.00 75 1013.2